This is the latest recevied weather packets stored in our database for station/object KG7FOQ-13. If no packets are shown the sender has not sent any weather packets the latest 10 day(s).
| Time | Temp. | Humidity | Pressure | Rain* | Wind** | Luminosity | Snow |
|---|---|---|---|---|---|---|---|
| 1777758578 | 23.89° C | 8% | 1014.4 hPa | 0 mm | - | - | - |
| 1777758325 | 23.89° C | 8% | 1014.4 hPa | 0 mm | - | - | - |
| 1777758278 | 23.89° C | 8% | 1014.4 hPa | 0 mm | - | - | - |
| 1777757976 | 23.89° C | 7% | 1014.5 hPa | 0 mm | - | - | - |
| 1777757676 | 23.89° C | 6% | 1014.8 hPa | 0 mm | - | - | - |
| 1777757375 | 23.33° C | 7% | 1014.8 hPa | 0 mm | - | - | - |
| 1777757075 | 23.89° C | 7% | 1014.9 hPa | 0 mm | - | - | - |
| 1777756774 | 23.89° C | 6% | 1015 hPa | 0 mm | - | - | - |
| 1777756474 | 23.89° C | 6% | 1015.2 hPa | 0 mm | - | - | - |
| 1777756173 | 23.89° C | 6% | 1015.1 hPa | 0 mm | - | - | - |
| 1777755873 | 23.89° C | 6% | 1015.2 hPa | 0 mm | - | - | - |
| 1777755572 | 23.89° C | 6% | 1015.3 hPa | 0 mm | - | - | - |
| 1777755270 | 24.44° C | 7% | 1015.3 hPa | 0 mm | - | - | - |
| 1777754969 | 23.89° C | 7% | 1015.3 hPa | 0 mm | - | - | - |
| 1777754669 | 23.33° C | 7% | 1015.5 hPa | 0 mm | - | - | - |
| 1777754368 | 23.33° C | 7% | 1015.7 hPa | 0 mm | - | - | - |
| 1777754068 | 23.33° C | 7% | 1015.8 hPa | 0 mm | - | - | - |
| 1777753767 | 22.78° C | 7% | 1015.8 hPa | 0 mm | - | - | - |
| 1777753467 | 22.78° C | 8% | 1015.8 hPa | 0 mm | - | - | - |
| 1777753166 | 23.33° C | 8% | 1016 hPa | 0 mm | - | - | - |
| 1777752866 | 22.78° C | 7% | 1016 hPa | 0 mm | - | - | - |
| 1777752565 | 22.78° C | 7% | 1016 hPa | 0 mm | - | - | - |
| 1777752302 | 23.33° C | 7% | 1016 hPa | 0 mm | - | - | - |
| 1777752265 | 23.33° C | 7% | 1016 hPa | 0 mm | - | - | - |
| 1777751964 | 22.78° C | 7% | 1016.2 hPa | 0 mm | - | - | - |
* Rain latest hour (hover to see other rain measurements)
** Current wind speed in m/s (hover to see current wind gust speed)